GEFSGL_con_cape1000_162.txt.gz
Probability
45 39 45 35 39 39 35 32 32 29 29 26 26 23 19 16 10 10 10 10 10 10 6 6 3 3 3 3 3 0 0 0 0 0 0 0 0 0 0 0 0 0 0
45 39 39 29 32 29 26 35 29 26 23 19 16 10 10 6 6 6 6 6 3 3 3 3 3 3 3 3 3 3 0 0 0 0 0 0 0 0 0 0 0 0 0
42 42 32 32 35 32 29 26 29 29 26 16 13 13 10 10 3 6 3 0 0 0 3 3 3 3 3 3 3 3 3 3 0 0 0 0 0 0 0 0 0 0 0
39 29 29 32 29 29 29 29 29 26 23 19 16 10 6 3 3 0 0 0 0 0 0 3 3 3 3 3 0 0 0 0 0 0 0 0 0 0 0 0 0 0 0
39 39 35 32 26 26 26 23 23 23 19 16 13 6 3 3 6 6 0 0 0 0 0 0 0 0 0 0 0 0 0 0 0 0 0 0 0 0 0 0 0 0 0
32 29 26 26 23 19 19 19 19 16 16 13 10 13 6 6 0 0 0 0 0 0 0 0 0 0 0 0 0 0 0 0 0 0 0 0 0 0 0 0 0 0 0
19 26 23 23 19 19 19 19 16 16 13 6 3 3 3 3 0 0 0 0 0 0 0 0 0 0 0 0 0 0 0 0 0 0 0 0 0 0 0 0 0 0 0
23 26 26 19 19 19 19 16 13 10 3 3 3 3 3 3 0 0 0 0 0 0 0 0 0 0 0 0 0 0 0 0 0 0 0 0 0 0 0 0 0 0 0
23 23 19 19 19 16 10 6 3 0 0 0 0 0 0 0 0 0 0 0 0 0 0 0 0 0 0 0 0 0 0 0 0 0 0 0 0 0 0 0 0 0 0
23 19 16 19 19 13 6 0 0 0 0 0 0 0 0 0 0 0 0 0 0 0 0 0 0 0 0 0 0 0 0 0 0 0 0 0 0 0 0 0 0 0 0
19 19 19 19 16 6 3 3 6 6 3 3 3 3 0 0 0 0 0 0 0 0 0 0 0 0 0 0 0 0 0 0 0 0 0 0 0 0 0 0 0 0 0
16 13 16 13 10 10 6 6 6 6 3 3 3 3 0 0 0 0 0 0 0 0 0 0 0 0 0 0 0 0 0 0 0 0 0 0 0 0 0 0 0 0 0
16 16 13 10 6 6 6 6 3 0 3 3 3 0 0 0 0 0 0 0 0 0 0 0 0 0 0 0 0 0 0 0 0 0 0 0 0 0 0 0 0 0 0
10 10 10 6 6 3 3 3 3 3 0 0 0 0 0 0 0 0 0 0 0 0 0 0 0 0 0 0 0 0 0 0 0 0 0 0 0 0 0 0 0 0 0
10 10 3 3 3 3 3 3 3 3 3 0 0 0 0 0 0 0 0 0 0 0 0 0 0 0 0 0 0 0 0 0 0 0 0 0 0 0 0 0 0 0 0
6 3 0 0 0 0 0 0 0 0 0 0 0 0 0 0 0 0 0 0 0 0 0 0 0 0 0 0 0 0 0 0 0 0 0 0 0 0 0 0 0 0 0
6 3 0 0 0 0 0 0 0 0 0 0 0 0 0 0 0 0 0 0 0 0 0 0 0 0 0 0 0 0 0 0 0 0 0 0 0 0 0 0 0 0 0
6 3 0 3 0 0 0 0 0 0 0 0 0 0 0 0 0 0 0 0 0 0 0 0 0 0 0 0 0 0 0 0 0 0 0 0 0 0 0 0 0 0 0
10 3 0 0 0 0 0 0 0 0 0 0 0 0 0 0 0 0 0 0 0 0 0 0 0 0 0 0 0 0 0 0 0 0 0 0 0 0 0 0 0 0 0
3 3 0 0 0 0 0 0 0 0 0 0 0 0 0 0 0 0 0 0 0 0 0 0 0 0 0 0 0 0 0 0 0 0 0 0 0 0 0 0 0 0 0
3 0 0 0 0 0 0 0 0 0 0 0 0 0 0 0 0 0 0 0 0 0 0 0 0 0 0 0 0 0 0 0 0 0 0 0 0 0 0 0 0 0 0
3 3 0 0 0 0 0 0 0 0 0 0 0 0 0 0 0 0 0 0 0 0 0 0 0 0 0 0 0 0 0 0 0 0 0 0 0 0 0 0 0 0 0
3 3 3 0 0 0 0 0 0 0 0 0 0 0 0 0 0 0 0 0 0 0 0 0 0 0 0 0 0 0 0 0 0 0 0 0 0 0 0 0 0 0 0
3 3 0 0 0 0 0 0 0 0 0 0 0 0 0 0 0 0 0 0 0 0 0 0 0 0 0 0 0 0 0 0 0 0 0 0 0 0 0 0 0 0 0
3 3 0 0 0 0 0 0 0 0 0 0 0 0 0 0 0 0 0 0 0 0 0 0 0 0 0 0 0 0 0 0 0 0 0 0 0 0 0 0 0 0 0
0 0 0 0 0 0 0 0 0 0 0 0 0 0 0 0 0 0 0 0 0 0 0 0 0 0 0 0 0 0 0 0 0 0 0 0 0 0 0 0 0 0 0

GEFSGL_con_cape1000_168.txt.gz
Probability
19 23 32 23 23 23 19 13 10 10 16 16 10 13 13 6 10 6 6 3 3 3 3 0 0 0 3 3 3 0 0 0 3 3 0 0 0 0 0 0 0 0 0
26 23 26 16 16 23 26 23 19 13 13 13 16 16 13 13 6 3 3 3 3 0 0 0 0 0 0 3 3 3 3 3 0 3 0 0 0 0 0 0 0 0 0
32 29 26 23 23 23 19 19 16 10 13 16 16 13 10 6 6 6 6 0 0 0 0 0 0 0 0 3 3 3 3 3 0 0 0 0 0 0 0 0 0 0 0
35 26 26 23 16 16 19 16 16 13 13 13 16 16 10 6 6 3 0 0 0 0 0 0 0 0 0 0 0 0 0 0 0 0 0 0 0 0 0 0 0 0 0
19 23 16 16 16 13 13 13 16 16 10 10 10 6 3 3 0 0 0 0 0 0 0 0 0 0 0 0 0 0 0 0 0 0 0 0 0 0 0 0 0 0 0
16 10 13 13 16 16 13 13 13 13 10 6 6 3 3 3 3 0 0 0 0 0 0 0 0 0 0 0 0 0 0 0 0 0 0 0 0 0 0 0 0 0 0
10 10 10 16 13 16 16 13 10 10 10 10 6 3 3 0 0 0 0 0 0 0 0 0 0 0 0 0 0 0 0 0 0 0 0 0 0 0 0 0 0 0 0
10 10 13 16 13 13 13 13 10 10 10 6 3 3 3 3 0 0 0 0 0 0 0 0 0 0 0 0 0 0 0 0 0 0 0 0 0 0 0 0 0 0 0
13 6 6 10 10 10 10 10 10 10 3 3 3 3 3 0 0 0 0 0 0 0 0 0 0 0 0 0 0 0 0 0 0 0 0 0 0 0 0 0 0 0 0
6 10 10 10 10 10 6 6 6 3 3 3 0 0 0 0 0 0 0 0 0 0 0 0 0 0 0 0 0 0 0 0 0 0 0 0 0 0 0 0 0 0 0
10 6 10 10 6 10 6 3 3 0 0 0 0 0 0 0 0 0 0 0 0 0 0 0 0 0 0 0 0 0 0 0 0 0 0 0 0 0 0 0 0 0 0
6 10 10 6 6 6 3 3 0 0 0 0 0 0 0 0 0 0 0 0 0 0 0 0 0 0 0 0 0 0 0 0 0 0 0 0 0 0 0 0 0 0 0
6 6 3 3 3 3 3 0 0 0 0 0 0 0 0 0 0 0 0 0 0 0 0 0 0 0 0 0 0 0 0 0 0 0 0 0 0 0 0 0 0 0 0
6 3 3 0 0 0 0 0 0 0 0 0 0 0 0 0 0 0 0 0 0 0 0 0 0 0 0 0 0 0 0 0 0 0 0 0 0 0 0 0 0 0 0
0 0 0 0 0 0 0 0 0 0 0 0 0 0 0 0 0 0 0 0 0 0 0 0 0 0 0 0 0 0 0 0 0 0 0 0 0 0 0 0 0 0 0
3 0 0 0 0 0 0 0 0 0 0 0 0 0 0 0 0 0 0 0 0 0 0 0 0 0 0 0 0 0 0 0 0 0 0 0 0 0 0 0 0 0 0
0 0 0 0 0 0 0 0 0 0 0 0 0 0 0 0 0 0 0 0 0 0 0 0 0 0 0 0 0 0 0 0 0 0 0 0 0 0 0 0 0 0 0
3 0 3 3 0 0 0 0 0 0 0 0 0 0 0 0 0 0 0 0 0 0 0 0 0 0 0 0 0 0 0 0 0 0 0 0 0 0 0 0 0 0 0
3 3 6 6 0 0 0 0 0 0 0 0 0 0 0 0 0 0 0 0 0 0 0 0 0 0 0 0 0 0 0 0 0 0 0 0 0 0 0 0 0 0 0
3 3 6 6 0 0 0 0 0 0 0 0 0 0 0 0 0 0 0 0 0 0 0 0 0 0 0 0 0 0 0 0 0 0 0 0 0 0 0 0 0 0 0
3 3 0 3 0 0 0 0 0 0 0 0 0 0 0 0 0 0 0 0 0 0 0 0 0 0 0 0 0 0 0 0 0 0 0 0 0 0 0 0 0 0 0
3 3 0 3 0 0 0 0 0 0 0 0 0 0 0 0 0 0 0 0 0 0 0 0 0 0 0 0 0 0 0 0 0 0 0 0 0 0 0 0 0 0 0
3 3 3 0 0 0 0 0 0 0 0 0 0 0 0 0 0 0 0 0 0 0 0 0 0 0 0 0 0 0 0 0 0 0 0 0 0 0 0 0 0 0 0
3 3 3 0 0 0 0 0 0 0 0 0 0 0 0 0 0 0 0 0 0 0 0 0 0 0 0 0 0 0 0 0 0 0 0 0 0 0 0 0 0 0 0
3 3 3 3 0 0 0 0 0 0 0 0 0 0 0 0 0 0 0 0 0 0 0 0 0 0 0 0 0 0 0 0 0 0 0 0 0 0 0 0 0 0 0
3 3 3 3 3 0 0 0 0 0 0 0 0 0 0 0 0 0 0 0 0 0 0 0 0 0 0 0 0 0 0 0 0 0 0 0 0 0 0 0 0 0 0

GEFSGL_con_cape1000_174.txt.gz
Probability
71 68 74 65 65 65 61 68 68 61 52 45 45 45 45 52 48 52 39 39 32 29 29 29 32 35 32 29 29 26 16 16 13 13 13 10 13 19 10 13 13 19 19
71 71 71 61 55 61 61 65 61 58 52 45 45 48 42 45 45 45 39 26 26 26 26 16 19 16 26 26 29 19 23 23 16 19 13 3 13 13 19 19 3 3 6
68 68 65 52 52 55 58 55 52 52 52 35 39 45 42 42 48 42 35 26 16 19 10 13 13 13 23 29 35 35 29 19 29 26 10 16 6 6 13 13 6 19 3
74 65 65 52 52 45 48 45 42 42 45 42 35 35 29 32 32 23 23 23 19 16 13 13 13 13 16 19 19 26 29 32 29 23 19 13 16 16 16 6 6 10 3
74 65 55 52 45 45 42 39 42 39 35 32 32 29 26 19 19 16 16 16 16 13 13 13 13 10 10 10 3 16 19 19 23 23 16 13 10 16 16 13 10 10 10
61 55 52 48 48 42 35 35 35 32 32 26 23 23 19 13 10 6 10 16 10 13 13 10 10 10 0 0 0 0 3 6 10 13 10 10 16 10 16 6 10 6 6
61 48 48 48 42 42 35 32 35 29 29 29 23 23 26 10 3 0 0 6 13 6 6 10 6 0 0 3 0 0 0 0 0 3 3 13 13 13 13 13 13 10 10
58 48 45 45 42 35 29 26 29 29 29 26 26 29 26 10 3 0 0 0 10 10 10 10 3 3 3 3 3 3 3 3 0 0 0 0 0 6 6 6 6 6 6
61 48 45 42 45 42 29 29 29 32 29 26 26 26 23 10 3 0 0 6 10 10 10 10 6 3 3 0 3 3 3 3 0 0 0 0 0 0 0 0 3 3 3
52 42 39 39 39 39 39 32 32 35 29 29 26 26 23 10 3 0 0 3 6 6 6 6 0 0 0 0 0 3 6 6 3 0 0 0 0 0 0 0 0 0 0
52 42 35 35 39 39 39 39 29 23 26 23 23 13 13 10 3 0 0 3 6 6 6 6 0 0 0 0 0 0 0 0 3 0 0 0 0 0 0 0 0 3 0
48 39 35 35 35 32 35 32 29 19 13 13 13 6 6 6 3 0 0 0 0 0 0 3 0 0 0 0 0 0 0 0 0 0 0 0 0 0 0 0 0 0 0
39 42 42 35 35 32 29 26 23 19 10 10 10 10 6 6 3 0 0 0 0 0 0 0 0 0 0 0 0 0 0 0 0 0 0 0 0 0 3 3 0 0 0
42 42 42 39 32 19 23 16 16 13 6 10 0 0 0 3 3 3 3 0 0 0 0 0 0 0 0 0 0 0 0 0 0 0 0 0 0 0 0 0 0 0 0
39 35 35 29 23 16 13 13 10 10 10 6 10 6 3 0 0 0 0 0 0 0 0 0 0 0 0 0 0 0 0 0 0 0 0 0 0 0 0 0 0 0 0
23 29 23 19 16 13 13 10 6 3 0 0 0 0 0 0 0 0 0 0 0 0 0 0 0 0 0 0 0 0 0 0 0 0 0 0 0 0 0 0 0 0 0
23 16 16 19 13 10 16 16 6 0 0 0 0 0 0 0 0 0 0 0 0 0 0 0 0 0 0 0 0 0 0 0 0 0 0 0 0 0 0 0 0 0 0
23 16 16 19 10 13 10 16 13 6 6 3 0 0 0 0 0 0 0 0 0 0 0 0 0 0 0 0 0 0 0 0 0 0 0 0 0 0 0 0 0 0 0
16 13 13 13 10 10 10 16 13 10 10 10 3 0 0 0 0 0 0 0 0 0 0 0 0 0 0 0 0 0 0 0 0 0 0 0 0 0 0 0 0 0 0
16 10 6 13 10 10 10 6 6 10 6 6 3 0 0 0 0 0 0 0 0 0 0 0 0 0 0 0 0 0 0 0 0 0 0 0 0 0 0 0 0 0 0
6 6 3 6 10 10 6 6 10 10 6 3 0 0 0 0 0 0 0 0 0 0 0 0 0 0 0 0 0 0 0 0 0 0 0 0 0 0 0 0 0 0 0
6 6 6 6 6 10 6 6 6 6 6 6 6 0 0 0 0 0 0 0 0 0 0 0 0 0 0 0 0 0 0 0 0 0 0 0 0 0 0 0 0 0 0
3 6 6 6 3 3 3 6 6 6 10 6 3 0 0 0 0 0 0 0 0 0 0 0 0 0 0 0 0 0 0 0 0 0 0 0 0 0 0 0 0 0 0
3 3 3 6 6 3 3 6 6 0 3 3 3 0 0 0 0 0 0 0 0 0 0 0 0 0 0 0 0 0 0 0 0 0 0 0 0 0 0 0 0 0 0
3 3 3 6 3 3 3 3 0 0 0 3 6 3 0 0 0 0 0 0 0 0 0 0 0 0 0 0 0 0 0 0 0 0 0 0 0 0 0 0 0 0 0
0 3 3 6 3 3 3 3 3 0 0 3 3 3 3 0 0 0 0 0 0 0 0 0 0 0 0 0 0 0 0 0 0 0 0 0 0 0 0 0 0 0 0

GEFSGL_con_cape1000_180.txt.gz
Probability
90 81 84 84 77 77 77 74 68 71 65 65 61 65 61 55 55 52 52 55 55 55 48 42 35 32 32 29 32 26 23 19 6 10 3 6 10 10 3 13 10 13 3
87 81 81 81 77 71 68 65 65 58 61 61 58 61 55 48 45 39 45 39 39 35 23 23 19 23 26 26 23 19 23 23 6 6 6 3 13 16 16 16 6 6 6
84 77 84 77 77 74 65 61 58 55 55 61 61 55 52 39 32 32 29 35 26 23 26 26 23 19 16 19 23 19 19 13 19 10 3 3 6 6 10 13 3 6 3
81 84 84 74 71 65 61 65 58 48 55 55 52 45 52 39 29 32 32 23 23 16 19 23 19 16 16 19 10 16 13 13 16 10 3 0 0 3 6 3 3 3 6
81 84 84 77 74 65 65 55 55 58 52 48 48 39 42 29 29 26 29 23 23 19 16 13 10 6 3 6 3 10 6 10 6 6 3 6 6 6 3 3 0 3 0
77 81 87 81 77 65 58 58 58 52 55 55 45 39 35 23 10 6 10 23 16 16 13 10 10 6 0 0 0 0 0 0 0 3 3 3 3 3 6 0 0 0 0
81 77 81 77 68 61 52 55 55 48 52 52 42 39 29 16 6 3 3 16 16 13 13 13 3 3 0 3 0 0 0 0 0 0 3 3 0 0 0 0 0 0 0
77 77 74 68 61 58 52 48 48 45 48 45 42 35 35 16 6 3 0 6 16 16 13 10 6 3 3 3 3 3 3 0 0 0 0 0 0 0 0 0 0 0 0
77 74 65 52 55 52 42 42 42 42 45 42 39 39 26 13 3 3 0 10 13 10 13 6 6 6 3 0 0 3 3 3 3 0 0 0 0 0 0 0 0 0 0
77 74 61 48 48 45 42 35 35 42 45 45 42 26 26 19 3 3 0 3 10 10 6 6 3 3 3 0 0 3 3 3 3 3 0 0 0 0 0 0 0 0 0
71 68 55 52 45 42 35 35 35 35 32 35 32 19 19 10 0 0 0 0 3 6 3 3 0 0 0 0 0 0 3 0 0 0 0 0 0 3 0 0 0 0 0
68 61 58 55 42 32 35 35 39 39 35 39 32 23 16 13 6 0 0 0 0 3 3 3 0 0 0 0 0 0 0 0 0 0 0 0 0 0 0 0 0 0 0
65 61 58 48 42 39 35 32 32 29 26 26 26 16 13 13 6 0 0 0 0 0 0 0 0 0 0 0 0 0 0 0 0 0 0 0 0 0 0 0 0 0 0
61 55 48 45 35 39 39 26 26 23 26 26 19 13 13 13 6 0 0 0 0 0 0 0 0 0 0 0 0 0 0 0 0 0 0 0 0 0 0 0 0 0 0
52 42 42 39 35 32 32 26 23 23 16 19 16 16 13 13 3 0 0 0 0 0 0 0 0 0 0 0 0 0 0 0 0 0 0 0 0 0 0 0 0 0 0
48 39 32 26 29 29 26 19 13 13 10 3 6 6 6 3 0 0 0 0 0 0 0 0 0 0 0 0 0 0 0 0 0 0 0 0 0 0 0 0 0 0 0
42 32 26 16 19 23 23 23 23 10 0 0 0 0 0 0 0 0 0 0 0 0 0 0 0 0 0 0 0 0 0 0 0 0 0 0 0 0 0 0 0 0 0
32 23 23 26 23 23 16 13 13 13 16 13 0 0 0 0 0 0 0 0 0 0 0 0 0 0 0 0 0 0 0 0 0 0 0 0 0 0 0 0 0 0 0
16 16 16 19 19 16 16 13 13 13 13 10 6 0 0 0 0 0 0 0 0 0 0 0 0 0 0 0 0 0 0 0 0 0 0 0 0 0 0 0 0 0 0
13 10 6 6 6 10 13 13 13 13 10 10 6 3 0 0 0 0 0 0 0 0 0 0 0 0 0 0 0 0 0 0 0 0 0 0 0 0 0 0 0 0 0
10 3 3 3 6 6 6 10 13 13 10 10 10 3 0 0 0 0 0 0 0 0 0 0 0 0 0 0 0 0 0 0 0 0 0 0 0 0 0 0 0 0 0
6 3 3 3 6 6 6 10 10 10 10 10 10 0 0 0 0 0 0 0 0 0 0 0 0 0 0 0 0 0 0 0 0 0 0 0 0 0 0 0 0 0 0
6 6 3 6 6 3 3 3 3 3 6 10 6 6 0 0 3 3 0 0 0 0 0 0 0 0 0 0 0 0 0 0 0 0 0 0 0 0 0 0 0 0 0
3 3 3 6 3 3 3 3 3 3 3 6 6 6 6 0 0 0 0 0 0 0 0 0 0 0 0 0 0 0 0 0 0 0 0 0 0 0 0 0 0 0 0
3 3 3 3 6 6 3 3 3 6 6 10 6 6 6 6 6 0 0 0 0 0 0 0 0 0 0 0 0 0 0 0 0 0 0 0 0 0 0 0 0 0 0
3 0 0 0 3 3 6 6 6 6 6 6 6 6 3 3 3 3 0 3 3 0 0 0 0 0 0 0 0 0 0 0 0 0 0 0 0 0 0 0 0 0 0

GEFSGL_con_cape1000_186.txt.gz
Probability
68 65 58 52 55 39 32 26 29 26 23 26 23 23 16 13 13 10 13 6 6 3 3 3 3 0 0 0 0 0 0 0 0 0 0 0 0 0 0 0 0 0 0
68 65 48 48 42 39 32 29 29 29 26 23 16 16 16 13 13 10 10 6 3 6 3 3 3 3 0 0 0 0 0 0 0 0 0 0 0 0 0 0 0 0 0
65 58 52 45 39 32 35 32 32 26 23 19 16 13 16 10 10 10 6 6 6 6 3 3 0 0 0 0 0 0 0 0 0 0 0 0 0 0 0 0 0 0 0
65 58 52 48 39 35 35 35 29 26 23 23 19 16 23 13 10 6 6 6 6 6 6 3 0 0 0 0 0 0 0 0 0 0 0 0 0 0 0 0 0 0 0
58 55 48 42 32 39 39 32 26 23 23 26 29 26 16 13 10 6 3 3 0 3 3 0 0 0 0 0 0 0 0 0 0 0 0 0 0 0 0 0 0 0 0
55 48 45 39 39 39 35 32 26 19 19 19 19 16 13 13 13 10 6 6 3 3 0 0 0 0 0 0 0 0 0 0 0 0 0 0 0 0 0 0 0 0 0
61 48 35 35 39 29 26 23 19 19 23 23 19 13 10 10 6 3 0 3 6 3 3 0 0 0 0 0 0 0 0 0 0 0 0 0 0 0 0 0 0 0 0
58 55 35 29 32 26 19 16 16 16 23 16 16 13 10 6 6 0 0 0 0 3 3 3 3 0 0 0 0 0 0 0 0 0 0 0 0 0 0 0 0 0 0
55 48 45 35 23 19 16 16 16 16 13 13 13 6 6 6 3 0 0 0 0 0 0 0 0 3 0 0 0 0 0 0 0 0 0 0 0 0 0 0 0 0 0
45 45 39 32 29 19 16 16 16 10 10 10 13 10 10 6 3 0 0 0 0 0 0 0 0 0 0 0 0 0 0 0 0 0 0 0 0 0 0 0 0 0 0
42 39 29 26 16 16 13 13 16 13 13 10 10 6 6 6 3 0 0 0 0 0 0 0 0 0 0 0 0 0 0 0 0 0 0 0 0 0 0 0 0 0 0
35 29 26 19 16 19 13 13 10 10 10 10 10 6 6 6 3 0 0 0 0 0 0 0 0 0 0 0 0 0 0 0 0 0 0 0 0 0 0 0 0 0 0
32 29 19 16 16 13 13 13 10 10 6 10 6 6 3 3 3 3 0 0 0 0 0 0 0 0 0 0 0 0 0 0 0 0 0 0 0 0 0 0 0 0 0
29 19 16 19 16 13 13 10 10 10 10 6 10 10 6 3 3 3 0 0 0 0 0 0 0 0 0 0 0 0 0 0 0 0 0 0 0 0 0 0 0 0 0
23 19 16 13 16 13 13 13 13 10 10 10 10 10 10 3 3 3 3 0 0 0 0 0 0 0 0 0 0 0 0 0 0 0 0 0 0 0 0 0 0 0 0
16 16 16 13 13 13 13 13 13 6 3 3 3 6 3 3 3 3 0 0 0 0 0 0 0 0 0 0 0 0 0 0 0 0 0 0 0 0 0 0 0 0 0
19 10 13 10 10 10 6 6 6 3 3 0 0 0 0 0 0 0 0 0 0 0 0 0 0 0 0 0 0 0 0 0 0 0 0 0 0 0 0 0 0 0 0
10 10 13 10 10 10 6 6 6 6 3 3 0 0 0 0 0 0 0 0 0 0 0 0 0 0 0 0 0 0 0 0 0 0 0 0 0 0 0 0 0 0 0
10 6 6 6 6 6 3 6 6 6 6 0 0 0 0 0 0 0 0 0 0 0 0 0 0 0 0 0 0 0 0 0 0 0 0 0 0 0 0 0 0 0 0
10 6 6 0 0 0 0 0 0 3 6 3 0 0 0 0 0 0 0 0 0 0 0 0 0 0 0 0 0 0 0 0 0 0 0 0 0 0 0 0 0 0 0
10 6 6 3 0 0 0 0 0 0 0 3 3 0 0 0 0 0 0 0 0 0 0 0 0 0 0 0 0 0 0 0 0 0 0 0 0 0 0 0 0 0 0
6 3 3 0 0 0 0 0 0 0 0 0 3 0 0 0 0 0 0 0 0 0 0 0 0 0 0 0 0 0 0 0 0 0 0 0 0 0 0 0 0 0 0
6 3 3 0 0 0 0 0 0 0 0 0 0 0 0 0 0 0 0 0 0 0 0 0 0 0 0 0 0 0 0 0 0 0 0 0 0 0 0 0 0 0 0
6 3 3 0 0 0 0 0 0 0 0 0 0 0 0 0 0 0 0 0 0 0 0 0 0 0 0 0 0 0 0 0 0 0 0 0 0 0 0 0 0 0 0
3 3 3 0 0 0 0 0 0 0 0 0 0 0 0 0 0 0 0 0 0 0 0 0 0 0 0 0 0 0 0 0 0 0 0 0 0 0 0 0 0 0 0
3 3 3 0 0 0 0 0 0 0 0 0 0 0 0 0 0 0 0 0 0 0 0 0 0 0 0 0 0 0 0 0 0 0 0 0 0 0 0 0 0 0 0

GEFSGL_con_cape1000_192.txt.gz
Probability
48 42 35 32 23 19 23 26 19 16 16 13 10 13 13 13 6 3 6 3 3 3 3 3 3 3 0 0 0 0 0 0 0 0 0 0 0 0 0 0 0 0 0
45 45 32 29 26 26 29 26 23 16 13 13 13 10 10 10 3 6 6 6 3 3 3 3 3 3 0 0 0 0 0 0 0 0 0 0 0 0 0 0 0 0 0
48 32 32 29 29 29 32 29 26 16 16 16 13 10 10 6 3 3 3 6 6 3 3 0 0 0 0 0 0 0 0 0 0 0 0 0 0 0 0 0 0 0 0
45 39 32 29 35 32 29 26 19 19 16 19 13 10 10 6 6 3 3 3 3 0 0 0 0 0 0 0 0 0 0 0 0 0 0 0 0 0 0 0 0 0 0
52 45 39 26 26 26 26 26 19 19 19 16 13 10 10 6 6 3 3 3 3 3 0 0 0 0 0 0 0 0 0 0 0 0 0 0 0 0 0 0 0 0 0
55 45 42 19 23 26 23 19 19 13 13 10 10 10 6 6 3 0 0 3 3 3 3 0 0 0 0 0 0 0 0 0 0 0 0 0 0 0 0 0 0 0 0
52 48 42 32 29 26 23 16 19 16 13 10 10 10 6 6 0 0 0 0 3 0 3 3 3 0 0 0 0 0 0 0 0 0 0 0 0 0 0 0 0 0 0
45 45 32 35 29 23 23 19 19 13 13 10 10 10 6 6 0 0 0 0 3 3 0 0 0 0 0 0 0 0 0 0 0 0 0 0 0 0 0 0 0 0 0
48 42 32 32 29 23 23 19 19 13 13 10 10 10 6 6 0 0 0 0 3 0 0 0 0 0 0 0 0 0 0 0 0 0 0 0 0 0 0 0 0 0 0
48 39 23 26 19 23 23 19 13 10 10 10 10 10 6 6 3 0 0 0 0 0 0 0 0 0 0 0 0 0 0 0 0 0 0 0 0 0 0 0 0 0 0
39 26 16 19 19 19 19 13 10 3 6 10 10 6 3 3 3 0 0 0 0 0 0 0 0 0 0 0 0 0 0 0 0 0 0 0 0 0 0 0 0 0 0
32 19 16 13 16 10 6 6 6 3 3 6 3 6 3 3 3 3 0 0 0 0 3 0 0 0 0 0 0 0 0 0 0 0 0 0 0 0 0 0 0 0 0
16 13 6 6 10 6 6 6 6 6 6 6 6 6 6 3 3 0 0 0 0 0 3 0 0 0 0 0 0 0 0 0 0 0 0 0 0 0 0 0 0 0 0
23 19 6 10 6 3 6 6 6 6 6 6 6 10 6 6 3 3 3 0 0 0 0 0 0 0 0 0 0 0 0 0 0 0 0 0 0 0 0 0 0 0 0
19 16 13 13 6 6 6 3 6 10 10 10 10 10 6 6 3 3 3 3 3 0 0 0 0 0 0 0 0 0 0 0 0 0 0 0 0 0 0 0 0 0 0
19 16 16 10 6 6 6 6 3 3 3 3 3 3 3 3 3 3 0 0 0 0 0 0 0 0 0 0 0 0 0 0 0 0 0 0 0 0 0 0 0 0 0
16 19 13 10 10 10 6 10 6 0 0 0 0 0 0 0 0 0 0 0 0 0 0 0 3 0 0 0 0 0 0 0 0 0 0 0 0 0 0 0 0 0 0
13 13 13 10 3 3 6 3 3 3 0 0 0 0 0 0 0 0 0 0 0 0 0 0 0 0 0 0 0 0 0 0 0 0 0 0 0 0 0 0 0 0 0
16 13 10 6 0 0 0 0 0 0 0 0 0 0 0 0 0 0 0 0 0 0 0 0 0 0 0 0 0 0 0 0 0 0 0 0 0 0 0 0 0 0 0
6 3 6 6 3 0 0 0 0 0 0 0 3 3 0 0 0 0 0 0 0 0 0 0 0 0 0 0 0 0 0 0 0 0 0 0 0 0 0 0 0 0 0
6 3 3 6 6 3 0 0 0 0 0 0 0 0 0 0 0 0 0 0 0 0 0 0 0 0 0 0 0 0 0 0 0 0 0 0 0 0 0 0 0 0 0
3 3 6 6 6 6 3 0 0 0 0 0 0 0 0 0 0 0 0 0 0 0 0 0 0 0 0 0 0 0 0 0 0 0 0 0 0 0 0 0 0 0 0
0 6 6 6 6 6 0 0 0 0 0 0 0 0 0 0 0 0 0 0 0 0 0 0 0 0 0 0 0 0 0 0 0 0 0 0 0 0 0 0 0 0 0
0 3 6 6 6 6 3 3 0 0 0 0 0 0 0 0 0 0 0 0 0 0 0 0 0 0 0 0 0 0 0 0 0 0 0 0 0 0 0 0 0 0 0
0 3 3 3 6 3 3 3 3 0 0 0 0 0 0 0 0 0 0 0 0 0 0 0 0 0 0 0 0 0 0 0 0 0 0 0 0 0 0 0 0 0 0
0 3 3 3 6 3 3 3 3 3 0 0 0 0 0 0 0 0 0 0 0 0 0 0 0 0 0 0 0 0 0 0 0 0 0 0 0 0 0 0 0 0 0

GEFSGL_con_cape1000_198.txt.gz
Probability
90 90 90 84 81 87 84 77 77 74 65 68 68 58 52 52 52 52 42 42 39 32 29 29 32 32 29 26 26 16 16 16 23 19 16 6 13 16 10 16 6 10 10
87 90 87 84 81 84 77 81 71 71 61 61 58 55 48 45 42 39 42 35 39 42 29 26 23 19 23 29 29 19 26 23 19 19 13 10 13 13 10 10 3 0 6
84 84 87 84 87 87 84 77 68 65 61 55 58 48 48 48 42 42 39 39 39 39 32 35 32 19 19 16 19 13 13 10 23 23 26 13 6 10 6 0 0 3 0
87 84 81 81 84 81 77 77 74 61 55 58 55 48 45 42 39 35 35 35 32 32 35 29 26 19 19 13 13 13 10 13 16 23 19 13 10 6 3 3 0 0 3
84 81 81 77 77 81 77 77 74 61 55 52 45 39 39 32 26 26 29 32 32 29 26 23 16 6 3 10 6 10 6 6 10 19 13 6 6 10 6 6 3 3 0
77 74 77 77 81 81 71 58 65 61 45 45 45 39 26 23 16 13 19 26 29 29 29 16 13 10 6 0 0 0 3 6 10 13 10 10 6 6 6 6 6 3 3
74 77 71 68 68 65 58 55 58 55 52 45 42 39 32 19 16 3 3 23 16 26 26 19 10 10 3 6 0 0 0 0 0 10 6 10 10 6 3 3 3 3 3
74 71 68 61 58 61 61 58 52 52 52 42 39 32 29 16 10 3 0 10 16 19 23 23 13 13 6 10 6 3 0 0 0 0 6 6 6 6 3 3 3 3 3
71 71 68 65 58 58 58 58 55 52 52 42 35 26 29 13 10 0 0 10 19 16 16 16 10 13 6 0 6 6 3 3 0 0 0 0 0 0 0 0 0 0 0
65 65 58 61 61 61 58 55 52 48 42 42 32 29 23 23 10 0 0 13 16 16 19 19 6 6 3 0 0 6 6 6 6 0 0 0 0 0 0 0 0 0 0
61 61 52 48 55 55 55 52 45 35 32 29 29 29 26 26 13 3 0 10 13 13 16 19 13 3 0 0 0 6 6 6 6 6 0 0 0 0 0 0 0 0 0
55 48 45 42 45 45 55 52 32 32 26 29 26 29 29 26 13 10 0 0 3 13 13 16 6 3 0 0 0 0 0 0 3 0 0 0 0 0 0 0 0 0 0
48 45 42 39 39 42 48 32 26 26 19 19 23 23 23 26 19 3 3 0 0 3 13 6 3 3 0 0 0 0 0 0 0 0 0 3 3 3 0 0 0 0 0
45 42 32 32 29 29 39 29 26 26 23 19 23 19 16 16 13 16 13 6 0 0 3 3 0 0 0 0 0 0 0 0 0 0 3 3 3 3 3 0 0 0 0
48 39 32 29 23 26 23 23 23 19 16 16 13 13 13 13 6 3 6 10 6 3 3 3 3 3 3 3 0 0 0 0 0 0 0 0 0 0 0 0 0 0 0
45 32 23 16 16 13 19 13 3 3 3 3 6 10 10 6 3 3 3 3 0 3 3 3 3 3 3 3 3 0 0 0 0 0 0 0 0 0 0 0 0 0 0
35 26 19 13 13 13 13 13 13 3 0 0 0 0 3 3 3 3 0 0 0 0 3 3 3 3 3 3 3 3 3 3 0 0 0 0 0 0 0 0 0 0 0
32 16 16 16 13 16 13 16 16 13 10 3 0 0 0 0 0 0 0 0 0 0 3 3 3 3 3 3 3 3 3 3 3 0 0 0 0 0 0 0 0 0 0
19 19 16 16 16 13 16 19 19 16 13 10 10 0 0 0 0 0 0 0 0 0 0 0 0 0 0 0 3 0 0 3 3 3 0 0 0 0 0 0 0 0 0
19 16 16 16 16 13 13 13 13 13 13 10 10 6 0 0 0 0 0 0 0 0 0 0 0 0 0 0 3 3 0 0 0 3 3 0 0 0 0 0 0 0 0
10 10 10 13 16 13 10 10 10 10 13 13 3 3 0 0 0 0 0 0 0 3 0 0 0 0 0 0 0 3 3 0 0 0 0 0 0 0 0 0 0 0 0
6 6 3 3 6 10 6 6 10 6 10 10 6 3 0 0 0 3 0 0 0 0 0 0 0 0 0 0 0 3 0 0 0 0 0 0 0 0 0 0 0 0 0
0 3 3 3 3 3 0 0 3 3 3 6 6 3 0 0 0 0 0 0 0 0 0 0 0 0 0 0 3 3 3 0 0 3 3 3 0 0 0 0 0 0 0
0 0 0 3 3 0 0 0 0 0 0 6 6 3 3 3 0 0 0 0 0 3 0 0 0 0 0 0 0 3 3 3 3 3 3 3 3 3 3 0 0 0 0
0 0 0 0 0 0 0 0 0 0 3 3 3 3 3 3 3 0 0 0 0 0 0 0 0 0 0 0 0 0 0 0 0 0 3 3 3 0 0 0 0 0 0
0 0 0 0 0 0 0 0 0 3 3 3 0 3 3 3 3 3 0 0 0 0 0 0 0 0 0 0 0 0 0 0 0 0 0 0 0 0 0 0 0 0 0

GEFSGL_con_cape1000_204.txt.gz
Probability
87 84 87 87 87 87 87 87 84 81 81 74 71 68 68 71 61 58 48 52 48 48 45 39 42 35 35 32 26 23 19 19 19 19 23 19 13 10 6 10 13 6 6
87 87 87 87 84 84 84 84 84 81 74 74 68 68 65 61 58 55 52 52 42 42 48 45 39 32 29 32 23 19 19 19 16 16 16 13 10 13 3 13 3 3 10
90 87 87 87 81 81 81 84 81 77 74 74 71 65 61 58 61 52 52 45 45 48 45 42 35 32 29 23 26 13 16 10 13 13 16 16 6 3 6 3 3 6 0
84 87 87 87 84 81 81 81 77 74 77 68 65 61 61 55 61 48 39 39 42 42 35 35 29 29 26 23 23 19 13 13 10 10 13 10 10 6 6 0 0 3 0
81 81 87 81 77 84 84 84 81 77 74 68 61 55 52 45 39 35 35 35 39 35 35 35 32 23 19 10 10 13 10 10 10 10 10 6 3 3 0 0 0 0 0
81 81 81 74 74 77 81 81 77 74 68 68 58 55 48 35 16 16 26 32 35 39 42 39 26 19 6 3 3 3 3 3 3 3 3 6 6 3 0 0 0 0 0
74 77 74 71 71 74 77 71 74 71 68 65 61 58 52 35 16 13 13 23 29 39 39 39 26 16 6 13 3 0 0 0 3 3 3 0 0 3 3 0 0 0 0
68 68 68 71 68 68 68 68 71 71 71 65 61 58 55 26 13 10 3 16 26 32 32 29 32 26 16 13 10 6 6 3 0 0 3 3 0 3 3 3 3 0 3
68 68 68 65 65 61 61 61 65 65 68 68 61 58 45 29 13 10 3 19 26 29 29 26 23 23 16 6 6 6 6 3 0 0 0 0 0 0 0 0 0 0 0
65 65 65 61 61 61 58 58 61 58 61 68 58 52 39 35 19 10 3 10 26 26 23 23 16 13 13 6 6 6 6 3 3 0 0 0 0 0 0 0 0 0 0
65 61 58 58 58 55 58 58 58 55 52 48 55 55 42 32 19 6 0 10 19 19 19 19 16 10 3 0 0 6 6 3 3 6 6 0 0 0 0 0 0 0 0
58 61 58 58 45 45 52 61 61 52 45 45 42 48 32 29 10 3 0 0 6 6 13 13 13 10 0 0 0 3 3 0 3 6 3 3 3 0 0 0 0 0 0
55 55 55 52 55 52 48 45 48 52 45 39 39 42 29 29 23 3 0 0 0 3 6 6 6 3 0 0 0 0 0 0 3 3 3 3 3 3 3 0 0 0 0
55 58 45 55 42 39 35 32 32 35 35 35 35 29 26 26 16 10 6 3 0 0 3 3 0 0 0 3 3 0 0 3 3 3 3 3 6 6 3 3 0 0 0
58 52 42 39 32 39 29 35 29 23 23 29 23 26 29 19 10 10 3 3 3 3 3 6 3 6 6 3 3 3 0 0 0 0 0 3 0 0 0 0 0 0 0
45 42 39 32 29 26 26 19 6 6 6 6 10 6 3 6 6 0 0 3 3 3 3 3 3 3 3 3 3 3 3 0 0 0 0 0 0 0 0 0 3 3 3
45 35 32 26 19 19 19 19 13 6 0 0 0 0 0 3 0 0 0 0 0 0 3 3 3 3 3 3 3 3 3 6 3 0 0 0 0 0 0 0 0 0 0
35 32 29 29 23 16 16 19 16 10 10 6 0 0 0 0 0 0 0 0 3 3 3 3 3 3 6 6 6 3 3 6 6 10 6 3 3 0 0 0 0 0 0
26 26 26 23 23 16 16 13 13 13 10 6 10 0 0 0 0 0 0 3 3 3 3 6 6 6 6 6 6 6 6 6 6 3 3 3 3 3 3 0 0 0 0
35 16 13 16 19 16 16 13 13 13 13 10 10 6 0 0 0 0 3 3 3 3 0 3 3 3 3 3 3 3 3 3 3 3 0 0 0 0 0 0 0 0 0
16 10 6 13 13 13 13 13 13 10 10 10 13 6 0 3 3 0 0 3 0 3 3 3 3 3 3 3 3 3 3 3 3 6 0 0 0 0 0 0 0 0 0
10 6 6 6 13 13 10 10 13 13 13 16 13 3 0 3 3 0 0 0 0 3 0 0 3 3 3 3 3 3 0 0 3 6 3 0 0 0 0 0 0 0 0
6 6 6 3 10 3 6 6 6 6 6 6 6 6 0 0 3 0 0 0 0 0 0 0 3 3 3 3 3 3 3 3 3 3 0 0 0 3 0 0 0 0 0
0 0 0 0 0 0 3 3 3 3 0 0 0 3 3 6 6 6 3 3 3 3 3 6 6 6 6 6 6 3 3 3 3 3 6 0 0 0 0 0 0 0 0
0 0 0 0 0 0 3 3 0 0 0 3 0 0 0 3 3 3 3 3 3 0 0 3 6 6 6 6 6 6 0 0 0 0 0 0 0 0 0 0 0 0 0
3 0 0 0 3 0 0 0 0 0 0 0 0 0 0 3 3 3 6 6 3 3 3 3 3 3 3 3 3 3 0 0 0 0 0 0 0 0 0 0 0 0 0

GEFSGL_con_cape1000_210.txt.gz
Probability
71 61 52 55 52 52 45 48 48 42 39 35 32 32 35 35 32 32 32 32 26 23 19 19 13 10 6 3 3 3 3 3 3 3 0 0 0 0 0 0 0 0 0
71 65 58 58 58 55 55 45 39 35 39 39 42 35 39 32 29 29 29 29 26 26 19 16 13 13 10 6 3 3 3 3 3 3 0 0 0 0 0 0 0 0 0
48 55 55 58 61 58 52 52 42 35 39 39 42 32 32 32 29 29 26 29 26 26 23 13 13 10 10 6 3 3 3 3 3 0 0 0 0 0 0 0 0 0 0
48 55 55 55 55 55 45 42 39 39 35 35 35 42 32 29 26 26 29 29 29 23 16 13 10 6 6 6 6 6 3 3 3 0 0 0 0 0 0 0 0 0 0
55 58 61 52 52 48 48 45 42 39 35 35 32 35 29 23 29 26 29 26 23 19 16 16 13 6 6 6 6 6 3 3 3 0 0 0 0 0 0 0 0 0 0
52 52 55 55 58 48 42 42 39 35 29 32 35 35 32 26 23 19 23 23 16 16 16 19 19 10 6 6 6 6 6 6 0 0 0 0 0 0 0 0 0 0 0
55 55 52 58 58 58 55 42 42 35 29 26 26 29 29 26 16 16 13 13 16 16 16 16 13 13 6 6 6 0 0 3 0 3 0 0 0 0 0 0 0 0 0
48 48 45 48 55 55 52 42 42 35 32 32 32 26 23 23 13 6 0 10 10 13 16 16 13 13 6 6 3 3 6 0 0 0 0 0 0 0 0 0 0 0 0
42 45 45 45 48 52 52 48 45 39 39 29 32 26 23 16 6 6 0 0 3 6 6 13 10 10 6 3 3 3 3 3 0 0 0 0 0 0 0 0 0 0 0
39 42 42 45 42 45 48 42 42 39 32 29 26 23 16 10 6 3 0 0 0 3 6 10 10 10 10 3 3 3 3 3 0 0 0 0 0 0 0 0 0 0 0
39 39 39 35 35 42 42 35 35 35 29 26 23 19 16 10 10 0 0 3 3 0 3 6 6 3 0 0 0 3 6 6 0 0 0 0 0 0 0 0 0 0 0
26 26 29 29 35 39 35 32 32 32 29 26 19 19 16 13 10 6 0 0 3 3 3 3 0 0 0 0 0 0 0 0 0 3 3 3 0 0 0 0 0 0 0
26 23 29 29 29 32 29 32 29 26 29 26 23 19 16 10 6 6 0 0 0 3 3 0 0 0 0 0 0 0 0 0 0 3 3 3 3 0 0 0 0 0 0
23 23 23 23 23 26 26 23 23 23 19 19 19 19 13 13 10 3 3 0 0 0 3 0 0 0 0 0 0 0 0 0 0 0 3 3 3 3 3 0 0 0 0
19 19 23 19 19 26 19 16 19 19 16 16 10 13 16 10 10 3 3 3 3 0 0 0 0 0 0 0 0 0 0 0 0 0 0 3 3 3 0 0 0 0 0
19 19 23 19 16 19 13 10 10 10 6 10 10 10 10 10 3 3 0 3 3 0 0 0 0 3 3 3 3 3 0 0 0 0 0 3 3 0 0 0 0 0 0
23 19 19 16 16 16 10 6 10 3 3 0 0 0 3 3 0 0 0 0 0 0 0 0 0 3 3 3 3 3 3 3 0 0 0 0 0 0 0 0 0 0 0
13 16 16 16 16 13 10 10 10 10 3 3 0 0 0 0 0 0 0 0 0 0 0 0 3 3 3 3 3 3 3 3 3 0 0 0 0 0 0 0 0 0 0
13 13 13 10 6 6 10 6 6 6 6 6 3 0 0 0 0 0 0 0 0 0 0 0 3 3 3 3 3 3 3 3 3 0 0 0 0 0 0 0 0 0 0
13 13 13 10 3 3 6 10 6 6 10 10 6 3 0 0 0 0 0 0 0 0 0 3 3 3 3 3 3 3 3 3 0 0 0 0 0 0 0 0 0 0 0
13 13 10 10 3 3 6 6 3 3 6 6 6 3 3 0 0 0 0 0 0 0 0 0 3 3 3 3 0 0 0 0 0 0 0 0 0 0 0 0 0 0 0
13 10 6 6 3 6 6 3 3 3 3 6 6 3 0 0 3 3 0 0 0 0 0 0 0 0 0 0 0 0 0 0 0 0 0 0 0 0 0 0 0 0 0
10 10 6 6 6 3 3 3 3 3 3 6 6 3 0 0 3 3 0 0 0 0 0 0 0 0 0 0 0 0 0 0 0 0 0 0 0 0 0 0 0 0 0
10 10 10 10 3 3 3 3 3 3 3 3 3 3 3 0 0 0 0 0 0 0 0 0 0 0 0 0 0 0 0 0 0 0 0 0 0 0 0 0 0 0 0
6 6 6 6 3 3 3 0 0 0 3 3 3 0 0 0 0 0 0 0 0 0 0 0 0 0 0 0 0 0 0 0 0 0 0 0 0 0 0 0 0 0 0
6 3 3 3 0 0 0 0 0 0 0 0 0 0 0 0 0 0 0 0 0 0 0 0 0 0 0 0 0 0 0 0 0 0 0 0 0 0 0 0 0 0 0

GEFSGL_con_cape1000_216.txt.gz
Probability
32 26 35 32 32 23 19 19 16 19 23 29 29 26 26 26 29 29 29 29 23 23 19 16 16 13 13 6 3 3 3 3 3 3 3 3 0 0 0 0 0 0 0
32 29 42 32 23 26 29 26 26 23 26 23 23 23 19 23 19 26 26 29 26 26 23 16 16 16 16 13 3 3 3 3 3 3 3 3 0 0 0 0 0 0 0
39 32 29 26 19 26 26 29 26 26 23 23 23 26 23 19 19 19 19 23 26 26 26 23 16 16 16 13 6 6 6 3 3 3 3 3 0 0 0 0 0 0 0
39 42 32 23 26 26 26 29 26 26 26 23 23 29 29 23 16 19 19 19 23 26 26 23 16 13 13 10 10 10 6 6 3 3 3 3 0 0 0 0 0 0 0
32 39 45 29 29 26 29 29 29 26 26 26 26 23 23 23 16 19 19 19 23 19 16 16 16 13 10 10 10 10 6 6 6 3 3 3 0 0 0 0 0 0 0
29 29 29 26 23 19 16 26 26 23 23 23 23 26 26 19 16 10 10 19 19 16 16 10 13 13 10 0 0 0 3 6 6 6 6 3 3 0 0 0 0 0 0
32 29 29 29 19 16 16 23 19 23 19 23 23 23 19 19 10 3 0 6 16 13 16 13 10 10 10 10 3 0 0 0 0 3 6 6 6 3 0 0 0 0 0
32 35 35 32 26 23 19 23 19 16 19 16 19 19 23 19 6 0 0 6 10 13 13 13 13 13 10 6 10 6 3 3 0 0 3 3 6 3 0 0 0 0 0
35 35 32 35 35 29 23 19 23 23 19 16 13 16 16 16 13 0 0 10 10 6 6 6 6 13 6 3 3 6 6 6 3 0 0 0 0 0 0 0 0 0 0
29 32 35 35 35 32 26 19 19 19 19 16 16 16 16 13 10 0 0 3 10 10 6 6 6 6 3 0 3 6 10 6 6 3 0 0 0 0 0 0 0 0 0
26 29 32 29 29 23 19 23 16 23 19 16 16 16 13 6 6 0 0 3 3 10 13 10 3 0 0 0 3 6 6 10 6 6 3 3 0 0 0 0 0 0 0
19 23 29 29 29 23 16 16 16 19 26 16 13 10 10 6 6 3 0 0 3 6 6 6 3 0 0 0 0 0 0 0 0 6 0 3 3 0 0 0 0 0 0
19 19 26 26 26 23 19 19 13 16 19 16 16 16 6 6 6 3 0 0 0 3 3 3 3 0 0 0 0 0 0 0 0 3 6 6 6 6 6 0 0 0 0
26 19 19 19 19 19 19 19 16 13 10 10 19 19 16 10 10 6 3 3 0 0 3 3 0 0 0 0 0 0 0 0 0 3 3 3 6 6 3 3 0 0 0
23 19 16 16 19 19 19 16 13 10 10 10 10 16 16 13 10 3 6 3 3 3 3 3 3 3 0 0 0 0 0 0 0 0 0 0 0 3 6 3 3 3 0
13 16 16 16 16 19 19 13 10 10 6 3 10 13 10 3 3 0 0 0 3 3 0 3 3 3 3 3 3 3 0 0 0 0 0 0 0 0 0 0 0 0 3
10 13 16 16 16 19 19 16 13 6 3 0 0 0 0 0 0 0 0 0 0 0 0 3 3 3 3 3 3 3 3 3 0 0 0 0 0 0 0 3 3 0 3
10 10 13 16 16 19 16 16 10 10 6 3 0 0 0 0 0 0 0 0 0 0 3 3 3 3 3 3 3 3 3 3 3 0 0 0 0 0 0 0 0 0 0
10 6 6 10 10 13 13 13 10 10 6 3 0 0 0 0 0 0 0 0 0 3 3 3 3 3 3 3 3 3 3 3 3 0 0 0 0 0 0 0 0 0 0
6 6 6 6 10 10 10 6 6 3 3 3 3 0 0 0 0 0 0 0 0 3 3 3 3 3 3 3 3 3 3 3 3 3 0 0 0 0 0 0 0 0 0
6 3 6 6 6 6 10 6 3 3 3 3 3 3 0 0 0 0 0 0 0 0 3 3 3 3 3 3 3 3 3 3 3 3 3 0 0 0 0 0 0 0 0
3 3 3 6 10 6 6 3 3 3 3 3 3 0 0 0 0 0 0 0 3 3 3 3 3 3 3 3 3 3 3 3 3 3 3 0 0 0 0 0 0 0 0
3 6 6 3 6 6 6 6 3 3 3 3 3 3 0 0 0 0 0 3 3 3 3 3 3 3 3 3 3 3 3 3 3 0 0 0 0 0 0 0 0 0 0
3 3 6 6 6 6 6 6 3 3 3 3 3 3 0 0 0 0 0 0 3 3 3 3 3 3 3 3 3 0 3 3 0 0 0 0 0 0 0 0 0 0 0
3 3 3 6 3 6 6 6 6 3 3 3 3 3 0 0 0 0 0 0 0 0 0 0 0 0 0 0 0 0 0 0 0 0 0 0 0 0 0 0 0 0 0
3 3 3 3 3 6 6 6 6 6 3 3 3 3 0 0 0 0 0 0 0 0 0 0 0 0 0 0 0 0 0 0 0 0 0 0 0 0 0 0 0 0 0

GEFSGL_con_cape1000_222.txt.gz
Probability
74 71 68 68 68 68 71 74 68 65 65 61 58 58 55 55 58 65 52 58 61 71 68 65 65 58 58 45 42 45 45 45 42 23 23 19 26 26 29 26 23 19 16
71 71 68 68 68 68 68 68 68 61 61 61 58 58 58 52 55 55 52 52 58 65 68 65 65 61 61 55 55 48 45 45 42 39 29 26 29 26 29 26 13 3 16
71 71 68 71 68 68 61 61 65 61 58 52 48 55 55 58 55 55 52 52 52 58 61 58 61 58 58 58 58 39 39 35 39 35 29 32 23 23 23 16 13 16 10
65 65 61 61 61 58 61 61 61 58 55 48 45 42 48 45 52 42 48 55 58 58 58 55 58 55 58 55 52 45 48 45 35 32 29 19 19 13 16 16 10 13 16
65 65 68 65 61 61 65 61 58 55 42 48 42 45 42 42 42 45 42 39 48 48 55 52 52 39 35 39 32 45 48 39 29 19 16 19 16 16 16 19 16 16 16
55 58 58 55 58 55 55 48 55 55 55 55 48 45 48 35 19 19 32 42 48 45 42 42 39 35 23 10 10 10 10 29 32 32 19 16 16 16 16 13 16 13 6
55 55 55 48 48 48 48 45 52 52 52 55 55 52 45 35 16 13 6 32 39 42 42 45 26 26 26 29 16 3 3 3 3 32 26 26 19 16 19 16 13 16 10
52 52 55 55 45 48 48 45 39 39 42 45 48 45 48 32 13 13 3 26 35 35 32 35 35 35 26 26 23 16 19 23 6 10 23 29 19 19 19 19 16 23 10
52 48 48 52 45 42 42 42 39 39 39 39 42 42 42 29 13 13 3 29 29 35 32 26 23 19 23 13 16 23 23 23 6 3 3 6 6 3 10 10 6 10 6
42 42 45 45 42 39 42 39 39 39 39 35 35 39 35 35 19 6 0 23 32 32 29 23 13 16 19 10 16 19 23 19 13 6 3 0 6 3 0 3 10 6 3
39 35 39 42 39 39 42 39 39 39 39 39 32 29 29 26 16 6 0 16 23 23 23 19 16 6 0 0 6 16 16 16 13 10 10 10 10 10 10 6 10 10 10
35 39 32 35 35 32 39 35 32 32 35 32 32 29 29 23 16 6 3 0 13 16 16 16 16 3 0 0 0 3 6 3 10 6 6 10 10 10 10 6 6 10 10
32 32 32 26 26 26 32 29 29 32 29 26 26 23 16 16 13 10 3 0 0 13 19 13 10 3 0 0 0 0 0 3 6 6 13 13 13 10 13 10 6 6 6
29 29 29 26 23 23 23 23 29 26 26 19 23 19 19 16 16 13 16 3 0 0 3 3 3 0 0 3 3 0 3 3 3 3 3 3 6 6 6 6 3 6 6
26 29 29 26 23 23 19 19 19 23 23 19 16 13 13 13 10 13 13 19 10 3 0 6 3 3 3 3 3 3 3 3 3 3 3 3 3 3 6 6 6 6 6
19 23 26 26 23 23 19 16 13 16 10 10 10 13 13 10 10 6 3 3 0 0 0 6 6 10 6 6 6 6 6 6 3 3 3 3 3 3 3 3 6 6 3
19 19 23 19 23 19 19 16 16 6 3 3 3 3 3 3 3 0 0 0 0 0 0 3 6 6 10 10 6 6 6 6 3 3 3 3 3 3 3 3 3 3 6
19 16 19 19 19 19 19 16 16 16 13 13 10 0 0 0 0 0 0 0 0 0 0 3 6 6 10 10 6 6 6 6 6 3 3 3 3 3 3 3 3 3 3
10 16 16 16 16 19 16 16 19 16 16 10 10 6 0 0 0 0 0 0 3 0 0 3 3 3 6 10 10 10 6 6 6 3 3 3 3 3 3 3 3 3 3
10 6 6 16 16 10 13 13 6 10 10 10 10 10 6 3 3 0 0 0 3 3 3 3 3 3 3 10 10 10 10 6 6 3 3 3 3 3 3 3 3 3 3
3 10 6 6 10 10 10 10 6 6 6 6 10 10 6 10 10 3 3 3 3 3 3 3 3 3 3 3 6 6 6 3 6 3 3 3 3 3 3 3 3 3 3
3 3 6 6 6 6 6 10 10 10 6 6 10 6 3 3 6 3 3 3 3 3 3 3 3 3 3 3 3 6 6 6 3 3 3 3 3 3 3 3 3 0 0
3 0 0 3 3 3 6 6 10 10 6 6 0 6 3 3 6 3 3 3 3 3 3 3 3 3 3 10 10 10 10 6 3 3 3 3 3 3 3 3 3 0 0
0 0 0 3 3 3 3 6 10 6 6 6 3 3 6 3 3 3 3 3 3 3 3 6 6 3 6 6 10 6 6 3 6 6 3 3 3 3 3 3 3 0 0
0 0 0 0 0 3 3 6 6 6 6 6 6 3 3 3 3 3 3 3 3 3 6 6 6 3 3 3 3 3 3 0 0 3 3 3 3 3 3 3 3 3 0
0 0 0 0 0 0 3 6 3 3 6 6 10 6 0 3 3 3 3 3 3 3 6 3 3 3 3 3 0 0 0 0 0 0 3 3 3 3 3 3 0 0 0